Location: Antioch Church
(34.9543°N, 88.5145°W)
Time: 11:06:56
(UTC+00:00)

Cosmos 1428 Rocket - Pass Details

Date: 11 December 2019
Orbit: 948 x 988 km, 82.9° (Epoch: 22 January)

Event Time Altitude Azimuth Distance (km) Brightness Sun altitude
Rises 11:28:25 0° 352° (N) 3,702 7.3 -16.6°
Reaches altitude 10° 11:30:57 10° 351° (N) 2,752 6.6 -16.1°
Maximum altitude 11:37:16 79° 266° (W) 1,009 4.5 -14.9°
Drops below altitude 10° 11:43:32 10° 180° (S) 2,730 7.1 -13.6°
Sets 11:46:01 0° 179° (S) 3,671 7.8 -13.2°
